{"data":{"norad_id":65400,"intl_designator":"2025-191X","name":"STARLINK-34876","alt_names":[],"object_type":"PAYLOAD","status":"ACTIVE","operator":null,"country":"US","launch_date":"2025-08-30","launch_site_code":"AFWTR","launch_vehicle":null,"mission":null,"orbit_class":"UNKNOWN","rcs_meters":null,"size_class":null,"mass_kg":null,"dimensions":null,"purposes":["comms"],"wikipedia_slug":null,"has_3d_model":false,"image_url":null,"decayed_at":null,"tle_current":{"epoch":"2026-05-25T02:52:07.875840Z","epoch_age_seconds":60802,"freshness":"FRESH","line1":"1 65400U 25191X   26145.11953560  .00003963  00000+0  27848-3 0  9993","line2":"2 65400  97.4530  16.5439 0002344  82.7239 277.4254 15.05659695 41778","mean_motion":15.05659695,"eccentricity":0.0002344,"inclination_deg":97.453,"raan_deg":16.5439,"arg_perigee_deg":82.7239,"mean_anomaly_deg":277.4254,"bstar":0.00027848,"rev_number":4177,"period_min":95.639141087588,"perigee_km":547.85758199071,"apogee_km":551.10524950401,"semimajor_km":6927.6184157474,"source":"CELESTRAK","updated_at":"2026-05-25T13:38:20.797728Z"}}}